Overview Statistics Trail Chart Weather Telemetry Raw packets
 

This is the latest recevied weather packets stored in our database for station/object HS1AXC-1. If no packets are shown the sender has not sent any weather packets the latest 10 day(s).

<< 1 2 3 4 5 >>
Time Temp. Humidity Pressure Rain* Wind** Luminosity Snow
1788675280 38.89° C 46% 1007 hPa - - 4 W/m² -
1788674658 38.33° C 49% 1008 hPa - - 4 W/m² -
1788674036 37.78° C 48% 1008 hPa - - 1 W/m² -
1788673414 38.33° C 47% 1008 hPa - - 2 W/m² -
1788672792 38.33° C 49% 1009 hPa - - 3 W/m² -
1788672170 38.33° C 49% 1009 hPa - - 1 W/m² -
1788671548 38.33° C 49% 1009 hPa - - 3 W/m² -
1788670926 37.78° C 51% 1009 hPa - - 2 W/m² -
1788670304 37.22° C 51% 1009 hPa - - 2 W/m² -
1788669682 37.78° C 51% 1010 hPa - - 2 W/m² -
1788669060 37.22° C 52% 1010 hPa - - 2 W/m² -
1788668438 37.22° C 54% 1010 hPa - - 2 W/m² -
1788667815 37.22° C 53% 1010 hPa - - 2 W/m² -
1788667193 37.22° C 53% 1010 hPa - - 2 W/m² -
1788666571 36.67° C 54% 1010 hPa - - 2 W/m² -
1788665949 37.22° C 55% 1010 hPa - - 2 W/m² -
1788665328 36.67° C 56% 1011 hPa - - 0 W/m² -
1788664705 35.56° C 59% 1011 hPa - - 1 W/m² -
1788664084 35.56° C 58% 1011 hPa - - 1 W/m² -
1788663461 35.56° C 59% 1011 hPa - - 1 W/m² -
1788662839 35° C 60% 1011 hPa - - 1 W/m² -
1788662217 35.56° C 60% 1011 hPa - - 1 W/m² -
1788661863 35° C 61% 1011 hPa - - 1 W/m² -
1788661241 34.44° C 62% 1011 hPa - - 1 W/m² -
1788660619 34.44° C 63% 1011 hPa - - 1 W/m² -

* Rain since midnight (hover to see other rain measurements)
** Current wind speed in m/s (hover to see current wind gust speed)